Theta_e
347 346 345 344 343 341 342 343 347 350 352 351 350 350 347 351 352 352 353 359 357 357 357 356 354 352 350 347 345 346 344 345 344 345 345 344 344 344 344 345 345 346 346
349 345 344 343 342 341 340 339 343 348 350 349 348 350 349 349 354 355 353 355 356 356 357 358 355 350 348 347 347 345 345 345 345 344 344 343 343 342 342 342 343 345 345
351 351 345 343 342 343 341 340 344 348 347 347 350 348 349 349 352 353 353 353 353 354 357 358 356 351 349 348 348 347 346 344 343 342 339 338 339 340 339 339 339 340 341
350 352 345 343 343 344 341 339 339 339 342 343 345 347 348 357 354 354 352 351 354 353 354 357 355 352 350 350 348 347 345 343 340 336 334 333 334 336 336 337 338 338 339
346 348 344 344 353 343 344 343 341 345 343 345 343 346 350 353 354 351 352 352 353 351 352 354 352 352 352 351 349 346 343 340 335 334 332 329 328 330 333 336 337 337 338
345 352 351 352 353 347 346 347 357 352 351 348 344 345 352 350 352 350 351 351 352 352 349 350 347 347 352 350 347 345 339 336 334 329 328 328 328 327 330 334 335 336 336
335 342 344 347 345 353 356 362 355 357 350 353 348 349 349 355 356 351 350 349 350 349 349 350 348 345 347 349 346 343 339 335 331 328 327 327 327 327 331 333 333 333 335
325 326 329 330 335 337 348 354 361 352 352 354 347 344 339 341 349 349 349 347 348 346 344 348 347 349 348 343 341 341 337 332 330 329 327 326 327 330 331 330 331 331 332
323 323 322 323 324 327 329 334 339 346 348 352 356 352 342 334 335 346 344 343 349 344 343 346 348 348 348 346 343 338 335 333 330 329 330 330 331 331 330 330 329 330 331
319 322 318 318 317 319 325 327 326 326 341 345 351 352 351 345 339 339 338 342 344 346 349 343 346 346 347 345 342 337 332 332 330 329 329 331 331 330 329 327 326 326 327
318 317 319 319 318 316 319 324 323 324 325 330 343 347 349 346 348 341 336 332 334 337 342 345 346 347 347 346 343 334 331 330 330 331 330 329 330 329 326 323 324 324 324
313 316 315 315 317 318 317 316 320 320 320 325 330 339 344 339 340 340 336 338 333 331 332 336 341 342 345 345 343 336 329 329 328 329 328 328 328 325 323 322 321 322 323
310 312 313 313 312 314 315 317 318 318 319 319 325 325 335 343 343 344 340 337 335 334 331 331 332 336 340 342 341 331 330 328 326 325 328 327 324 322 320 319 319 320 320
309 312 311 311 311 312 312 314 313 315 318 318 322 324 324 333 340 344 338 335 334 334 335 332 331 332 336 336 339 331 327 325 325 324 323 321 319 316 316 317 317 317 316
308 309 309 308 308 309 309 309 308 311 316 316 317 320 324 328 330 336 345 343 337 328 328 336 331 336 336 336 329 330 329 324 322 319 318 316 314 314 314 313 313 313 314
307 306 305 305 306 306 306 306 305 307 310 311 314 317 320 323 328 329 334 338 339 333 328 334 327 333 336 332 329 329 329 320 319 317 316 313 312 312 311 311 312 313 313
306 304 303 303 303 303 304 303 303 303 305 306 310 313 316 319 321 324 327 336 336 333 327 332 325 333 333 329 323 326 319 315 314 315 314 313 310 310 310 311 312 312 312
305 303 302 301 301 300 300 299 298 300 299 300 303 307 312 315 320 324 325 327 332 332 330 325 318 321 321 323 317 318 317 317 319 314 314 311 310 309 310 312 312 311 311
305 303 302 300 299 300 299 299 299 298 297 297 297 302 306 313 316 320 321 326 328 326 321 313 313 316 318 318 315 318 319 319 318 314 312 311 311 310 312 314 312 312 312
304 303 302 301 301 300 299 299 298 296 296 296 298 298 301 308 313 318 319 322 323 320 317 315 313 313 315 317 319 315 314 316 314 313 313 311 310 311 313 315 315 314 312
304 303 302 301 300 300 299 297 296 295 294 295 297 299 302 307 311 315 317 318 321 319 314 313 313 312 313 318 317 317 313 313 314 316 311 310 311 311 312 314 317 313 309
303 302 302 300 299 298 298 297 296 294 294 296 297 301 305 307 311 311 312 314 321 318 313 312 312 310 315 318 317 313 310 309 305 314 313 312 317 314 316 317 313 308 306
302 301 300 301 299 299 296 295 296 294 293 294 297 298 304 311 312 316 316 313 314 316 316 314 313 311 317 318 316 310 309 308 308 313 312 309 314 311 316 314 308 307 306
301 300 299 299 298 298 296 294 295 294 293 292 296 298 302 311 314 314 320 316 320 320 318 318 318 316 319 316 316 311 310 312 317 313 314 306 314 312 317 317 307 307 306
300 299 298 298 297 297 295 294 293 292 292 292 295 297 299 311 309 305 312 312 312 306 307 305 303 303 306 308 312 313 312 311 309 310 313 310 311 311 313 313 310 307 305
299 298 298 298 297 296 295 293 292 292 290 290 293 296 298 303 305 303 310 308 303 303 304 307 306 305 306 306 308 317 314 310 309 309 314 307 309 310 307 313 313 311 311
Wind_Speed
6 6 7 7 7 8 7 7 8 5 8 11 12 6 10 7 6 5 4 12 9 7 5 8 7 8 9 7 5 6 5 5 5 5 5 5 5 5 4 4 2 6 11
7 7 7 8 8 8 8 8 8 7 8 10 10 9 9 8 3 5 6 5 12 10 11 10 10 9 8 8 7 6 5 5 5 5 5 5 5 5 4 4 4 5 3
8 8 9 8 8 8 10 8 9 9 10 10 11 10 11 7 8 2 9 3 7 13 12 13 13 10 9 9 9 7 6 5 5 5 5 5 5 4 3 4 4 4 4
9 8 9 9 9 8 9 9 9 9 9 9 9 9 8 5 4 7 8 3 5 8 9 12 13 10 9 9 9 9 8 7 6 6 4 4 4 4 3 3 4 5 5
9 8 10 10 8 9 9 9 9 9 9 9 10 10 9 7 5 9 8 7 7 5 9 14 13 11 11 12 10 8 9 8 6 5 4 3 2 2 4 5 5 6 5
15 15 9 9 8 10 11 10 8 9 9 9 11 11 8 8 5 7 9 8 8 10 7 13 10 10 16 15 13 12 11 9 7 3 3 1 1 2 2 4 4 6 8
16 14 11 11 14 14 11 10 9 10 11 11 10 10 10 10 10 9 9 8 10 8 10 13 8 8 10 16 16 15 14 12 9 5 3 2 2 2 1 3 5 5 6
14 11 12 13 14 13 17 12 9 11 11 10 6 10 12 6 9 11 9 8 11 8 11 12 12 16 13 10 13 18 18 15 11 9 6 3 3 3 1 1 4 6 7
10 9 12 12 12 11 10 13 14 15 11 11 13 6 5 11 3 4 6 9 9 10 11 10 13 13 13 13 17 17 17 15 15 10 7 6 4 3 1 1 2 5 7
12 9 4 6 8 9 13 12 12 14 14 13 10 9 10 13 5 5 6 10 6 10 9 10 11 11 11 9 14 19 20 17 15 14 10 8 5 4 2 2 3 4 7
13 13 13 14 9 6 9 13 13 14 11 13 12 9 9 9 11 10 11 7 10 9 10 10 10 9 10 10 9 10 19 17 15 13 12 9 8 6 5 3 4 6 8
11 13 16 15 15 14 11 10 14 15 13 14 14 14 10 8 11 9 12 13 12 10 10 10 11 10 10 11 12 17 20 14 13 12 11 12 9 7 6 6 6 8 10
11 13 17 15 14 16 16 15 15 15 14 14 15 13 13 12 12 11 11 13 11 10 9 11 9 10 9 9 9 15 16 14 11 10 11 13 11 8 6 9 9 9 11
12 16 15 16 17 18 17 16 14 15 16 14 18 14 12 15 12 12 14 12 12 11 11 11 10 10 9 9 10 19 11 12 12 11 11 11 10 7 7 10 11 11 12
13 16 17 16 15 16 17 18 15 18 17 16 16 17 16 13 13 13 13 13 14 13 11 11 9 11 10 8 13 12 12 14 13 11 10 10 7 6 7 9 11 12 12
16 17 18 18 17 17 17 16 14 18 19 17 15 18 17 14 15 12 15 15 14 12 11 9 11 10 11 8 13 10 11 18 15 11 11 10 8 7 8 10 11 12 11
16 17 17 17 18 17 17 17 17 18 19 18 20 21 22 20 17 15 13 14 13 9 13 10 2 7 8 11 9 9 12 10 9 14 14 12 10 8 10 11 11 11 10
16 16 16 16 16 17 18 19 20 17 19 18 21 23 24 16 21 18 15 18 11 10 10 13 4 8 8 10 10 8 8 8 10 18 16 14 10 8 9 10 10 9 8
16 17 17 18 18 17 17 17 18 19 19 19 19 22 21 23 22 17 16 16 15 11 9 4 5 5 8 8 9 6 6 7 6 19 14 12 11 9 12 10 8 8 7
17 16 16 17 17 19 19 18 20 20 21 20 22 21 23 23 25 22 17 17 13 11 11 11 10 11 11 11 11 11 8 8 7 10 11 8 11 13 14 13 10 7 3
17 18 18 18 16 16 14 21 23 23 23 23 23 25 24 27 35 29 16 17 15 12 11 13 12 11 13 16 16 13 12 9 8 7 6 7 7 7 10 13 10 8 5
18 15 16 18 18 13 24 32 32 23 26 24 21 22 23 32 31 34 34 30 23 16 16 13 14 16 18 15 14 12 9 9 7 5 4 7 7 7 7 10 12 14 10
18 17 17 18 20 19 27 32 37 22 21 21 23 21 23 19 25 22 25 28 29 27 27 20 21 18 18 17 16 14 11 9 6 8 6 9 8 8 7 8 15 13 11
17 16 17 17 18 18 28 33 38 23 21 24 23 21 25 19 19 18 18 15 22 18 19 13 16 18 17 17 16 13 11 10 7 9 8 6 5 6 5 4 15 13 10
15 16 15 16 17 19 27 33 32 21 20 24 22 21 22 16 18 16 15 19 7 7 13 21 20 13 15 16 13 11 12 11 10 9 9 6 6 5 6 6 9 13 14
15 15 17 13 19 18 25 31 30 15 20 18 21 23 33 21 15 11 12 9 12 9 12 13 14 13 14 13 13 4 9 10 8 7 12 6 6 5 6 7 7 9 9
Wind_Direction
253 271 276 280 291 297 287 272 272 290 302 279 262 290 311 301 290 288 315 140 155 192 208 183 185 166 154 147 139 114 105 103 94 85 82 77 58 47 28 28 310 267 254
268 271 269 263 267 272 279 282 278 287 306 292 293 276 287 300 19 290 323 158 157 182 180 178 171 173 165 153 145 137 128 120 108 94 72 56 49 39 37 22 2 19 351
268 268 280 285 281 280 280 273 269 259 258 264 257 261 252 248 222 270 269 258 170 193 175 173 168 175 173 166 156 147 144 140 120 98 84 63 36 44 18 16 341 348 337
258 271 274 271 273 276 270 265 268 272 268 272 276 274 286 302 274 261 266 264 194 178 175 179 169 169 179 176 168 160 158 156 145 121 97 77 64 20 353 2 339 332 339
283 272 278 282 282 273 268 268 262 260 267 266 270 257 257 244 263 262 265 282 268 191 181 167 161 168 168 172 176 177 169 162 163 147 136 96 48 27 355 353 339 318 326
5 354 293 267 277 278 269 260 272 285 292 288 284 295 302 289 254 256 262 246 225 216 192 168 166 170 166 177 178 179 180 181 181 186 172 181 21 350 347 356 352 338 321
355 355 344 341 357 318 264 286 288 274 268 270 264 261 254 235 219 246 242 239 263 223 171 167 196 167 179 179 173 182 192 189 181 176 200 197 218 291 326 358 349 337 330
347 349 354 337 343 339 338 318 299 281 273 265 249 287 287 280 201 211 234 230 239 220 218 197 201 174 176 186 191 187 186 189 191 181 182 222 224 209 184 7 343 335 334
345 346 359 341 338 340 328 326 323 311 285 277 272 216 259 254 250 243 198 240 221 220 224 205 206 210 196 192 172 185 188 189 181 188 186 176 209 202 242 359 331 336 339
339 337 4 340 343 330 324 321 321 314 318 290 283 276 271 277 291 268 218 225 256 234 227 230 211 216 214 201 175 186 184 188 187 178 182 172 186 229 230 298 310 332 338
337 338 347 343 335 320 309 304 308 320 313 308 307 294 281 276 261 251 265 207 233 244 236 227 238 214 221 205 206 157 170 182 179 182 174 189 183 207 245 240 289 308 317
338 346 347 332 327 323 320 312 305 302 299 299 294 288 275 254 249 240 248 255 228 224 237 234 229 243 210 211 214 166 169 180 181 184 186 184 185 192 234 266 282 302 312
342 339 336 328 326 320 312 310 304 298 290 283 286 282 289 270 256 255 251 252 247 215 226 234 233 231 228 212 189 145 161 169 183 182 183 174 179 196 237 267 284 296 300
333 332 334 323 319 316 314 312 304 300 296 291 291 282 282 280 280 259 248 247 256 252 217 212 214 225 221 218 169 154 156 167 169 169 180 180 180 201 243 272 287 294 296
338 342 336 330 325 318 313 311 304 304 297 290 284 281 276 263 258 269 266 242 236 248 241 209 205 213 232 189 136 180 162 164 170 169 191 191 197 217 248 270 275 280 284
347 345 342 336 330 329 322 311 300 300 300 299 291 286 286 277 268 267 268 258 235 240 258 263 200 202 209 180 156 171 164 160 168 183 205 211 212 229 251 260 261 264 270
349 346 341 335 336 331 326 321 309 301 286 284 285 281 275 271 270 268 264 262 230 237 253 248 310 172 161 173 161 160 140 164 171 184 206 211 215 228 245 252 258 260 255
345 343 343 337 332 329 326 319 313 307 297 296 289 277 278 275 269 256 257 253 237 223 229 236 181 169 174 161 161 173 174 181 189 187 198 199 205 214 250 252 247 245 236
345 344 340 336 336 332 329 317 319 315 301 295 292 288 270 274 270 263 253 245 234 219 207 167 177 179 169 163 160 191 181 194 198 167 186 195 202 203 234 238 218 219 217
335 340 342 335 323 336 332 333 318 309 298 291 285 277 276 262 266 266 254 244 226 214 197 195 189 172 179 177 176 181 182 206 193 180 194 199 189 208 225 228 216 212 213
337 343 335 338 329 327 334 333 324 314 304 293 281 274 265 257 255 261 259 251 221 211 198 198 191 181 176 183 188 184 184 187 205 191 165 192 182 208 216 227 215 167 142
333 340 332 339 339 327 329 329 331 318 310 302 298 288 268 259 250 251 257 242 247 201 198 189 187 194 188 181 175 178 171 176 177 195 202 220 208 226 216 213 150 152 150
333 343 345 336 338 336 337 329 330 323 318 310 302 294 287 253 240 248 236 237 244 202 198 194 190 193 181 180 169 175 173 171 182 146 172 215 200 222 229 129 154 161 163
333 346 347 338 336 338 341 335 334 330 323 319 308 304 301 254 249 241 248 242 226 211 211 202 216 187 179 166 169 167 165 159 169 159 183 221 215 216 194 145 169 168 172
333 343 350 338 340 333 344 340 339 334 328 329 324 321 322 261 245 232 250 263 153 74 81 79 64 18 143 137 156 155 164 170 179 192 175 218 201 211 218 216 160 174 193
335 340 341 345 339 335 346 346 343 332 335 335 335 345 347 304 274 182 231 134 113 109 108 95 96 59 15 71 50 95 161 170 188 177 158 186 210 208 230 216 171 180 212